Weather Service Report


644 
ASUS45 KBOI 311810
RWRID 
WEATHER ROUNDUP FOR IDAHO
NATIONAL WEATHER SERVICE BOISE ID
1100 AM MST SAT JAN 31 2015

NOTE: "FAIR" INDICATES FEW OR NO CLOUDS BELOW 12000 FEET
WITH NO SIGNIFICANT WEATHER AND/OR OBSTRUCTIONS TO VISIBILITY

IDZ012-014-311900-
SOUTHWEST IDAHO

  
CITY           SKY/WX    TMP DP  RH WIND       PRES   REMARKS
BOISE          SUNNY     38  31  76 NW9       30.19R WCI  31          
CALDWELL       SUNNY     34  28  80 N3        30.22S                  
MOUNTAIN HOME  DRIZZLE   32  32 100 NW3       30.19R FOG              
$$

IDZ016-017-311900-
SOUTHCENTRAL IDAHO

  
CITY           SKY/WX    TMP DP  RH WIND       PRES   REMARKS
BURLEY         PTSUNNY   38  28  67 SW9       30.13R WCI  31          
JEROME         PTSUNNY   35  29  78 SW12      30.15R WCI  27          
TWIN FALLS     SUNNY     41  27  57 W15       30.14R                  
$$

IDZ019>023-311900-
SOUTHEAST IDAHO

  
CITY           SKY/WX    TMP DP  RH WIND       PRES   REMARKS
IDAHO FALLS    CLOUDY    28  26  92 W5        30.12R WCI  23          
POCATELLO      CLOUDY    32  29  88 W9        30.14R WCI  24          
REXBURG        CLOUDY    24  23  96 NE6       30.12R WCI  17          
$$

IDZ006-010-011-018-031-032-311900-
CENTRAL IDAHO MOUNTAINS

  
CITY           SKY/WX    TMP DP  RH WIND       PRES   REMARKS
MCCALL         SUNNY     21  17  84 SE3       30.14R                  
HAILEY         MOSUNNY   21  14  73 E3        30.12R                  
STANLEY          N/A      2  -3  80 NW3       30.19S                  
SALMON         CLOUDY    27  19  74 NW3       30.23S                  
CHALLIS        CLOUDY    25  17  72 VRB5      30.20R WCI  19          
$$

IDZ002-004-006-007-026-311900-
NORTHERN IDAHO

  
CITY           SKY/WX    TMP DP  RH WIND       PRES   REMARKS
LEWISTON       CLOUDY    37  33  85 CALM      30.31S                  
LOWELL           N/A     36  29  75 CALM      30.34R                  
COEUR D'ALENE  CLOUDY    32  27  80 W6        30.27S WCI  26          
MULLAN PASS    FOG       23  19  85 NW5       30.09R VSB 1/4 WCI  17  
$$

Return to Home page


Western Regional Climate Center, wrcc@dri.edu